QPF
0.05 0.05 0.03 0.03 0.04 0.06 0.09 0.10 0.10 0.11 0.12 0.12 0.13 0.12 0.11 0.13 0.17 0.14 0.15 0.15 0.13 0.12 0.09 0.06 0.05 0.04 0.04 0.04 0.04 0.03 0.04 0.04 0.04 0.04 0.05 0.05 0.08 0.09
0.06 0.05 0.04 0.03 0.03 0.05 0.07 0.08 0.08 0.10 0.12 0.14 0.13 0.11 0.08 0.07 0.08 0.08 0.09 0.09 0.07 0.08 0.07 0.05 0.05 0.05 0.06 0.05 0.05 0.05 0.04 0.04 0.04 0.03 0.03 0.04 0.05 0.05
0.05 0.04 0.04 0.03 0.04 0.04 0.06 0.06 0.06 0.08 0.10 0.12 0.13 0.10 0.07 0.07 0.05 0.06 0.07 0.07 0.07 0.07 0.05 0.04 0.04 0.05 0.05 0.05 0.05 0.05 0.05 0.04 0.04 0.04 0.04 0.04 0.04 0.04
0.07 0.06 0.04 0.03 0.03 0.04 0.04 0.05 0.05 0.06 0.06 0.07 0.07 0.07 0.07 0.06 0.05 0.06 0.06 0.07 0.06 0.05 0.04 0.03 0.03 0.03 0.03 0.03 0.03 0.02 0.02 0.02 0.03 0.03 0.03 0.03 0.03 0.03
0.06 0.04 0.03 0.03 0.03 0.04 0.04 0.03 0.02 0.02 0.03 0.03 0.03 0.04 0.05 0.05 0.03 0.03 0.03 0.04 0.04 0.03 0.02 0.02 0.02 0.02 0.01 0.01 0.01 0.01 0.02 0.02 0.01 0.01 0.01 0.02 0.02 0.02
0.03 0.04 0.04 0.04 0.04 0.03 0.03 0.02 0.02 0.02 0.03 0.03 0.03 0.03 0.03 0.04 0.03 0.03 0.03 0.02 0.02 0.02 0.02 0.01 0.01 0.01 0.01 0.01 0.01 0.01 0.01 0.01 0.01 0.01 0.01 0.01 0.00 0.01
0.01 0.02 0.03 0.03 0.02 0.02 0.03 0.03 0.03 0.03 0.04 0.03 0.02 0.02 0.03 0.05 0.04 0.04 0.04 0.02 0.02 0.02 0.02 0.02 0.02 0.01 0.01 0.01 0.01 0.01 0.01 0.01 0.01 0.00 0.00 0.00 0.00 0.00
0.02 0.02 0.02 0.02 0.01 0.02 0.02 0.03 0.04 0.04 0.03 0.04 0.05 0.05 0.05 0.04 0.03 0.02 0.03 0.02 0.01 0.01 0.01 0.01 0.02 0.02 0.02 0.01 0.01 0.01 0.00 0.00 0.00 0.00 0.00 0.00 0.00 0.00
0.02 0.02 0.02 0.02 0.01 0.01 0.02 0.02 0.02 0.02 0.03 0.03 0.03 0.02 0.02 0.02 0.02 0.02 0.02 0.02 0.02 0.01 0.01 0.01 0.01 0.01 0.02 0.01 0.01 0.00 0.00 0.00 0.00 0.00 0.00 0.00 0.00 0.00
0.01 0.01 0.01 0.02 0.01 0.01 0.01 0.01 0.01 0.01 0.01 0.01 0.01 0.01 0.01 0.01 0.01 0.01 0.02 0.02 0.02 0.02 0.01 0.01 0.02 0.02 0.01 0.01 0.02 0.02 0.01 0.01 0.01 0.01 0.01 0.01 0.00 0.00
0.01 0.00 0.00 0.00 0.01 0.01 0.00 0.01 0.00 0.00 0.01 0.01 0.01 0.01 0.01 0.01 0.00 0.01 0.01 0.02 0.03 0.04 0.03 0.02 0.02 0.02 0.02 0.01 0.02 0.02 0.02 0.02 0.02 0.02 0.02 0.02 0.01 0.01
0.00 0.00 0.00 0.01 0.01 0.00 0.00 0.00 0.00 0.00 0.00 0.00 0.00 0.00 0.01 0.01 0.01 0.01 0.02 0.02 0.03 0.03 0.03 0.03 0.03 0.02 0.03 0.03 0.03 0.03 0.03 0.03 0.02 0.02 0.02 0.02 0.02 0.01
0.01 0.00 0.01 0.01 0.00 0.00 0.00 0.00 0.00 0.00 0.00 0.00 0.00 0.01 0.01 0.01 0.01 0.01 0.01 0.02 0.02 0.02 0.02 0.02 0.03 0.03 0.03 0.04 0.04 0.05 0.04 0.03 0.03 0.02 0.02 0.02 0.01 0.01
0.01 0.01 0.01 0.00 0.00 0.00 0.00 0.00 0.00 0.00 0.00 0.00 0.01 0.01 0.01 0.02 0.02 0.03 0.03 0.03 0.02 0.02 0.02 0.03 0.03 0.04 0.04 0.05 0.05 0.04 0.03 0.03 0.03 0.03 0.02 0.02 0.01 0.01
0.01 0.01 0.00 0.00 0.00 0.00 0.00 0.00 0.00 0.01 0.00 0.00 0.01 0.01 0.01 0.01 0.01 0.01 0.02 0.02 0.02 0.02 0.02 0.03 0.04 0.04 0.04 0.03 0.03 0.02 0.02 0.02 0.02 0.02 0.01 0.01 0.01 0.01
0.00 0.00 0.00 0.00 0.00 0.00 0.00 0.00 0.00 0.00 0.00 0.00 0.00 0.00 0.00 0.00 0.01 0.02 0.03 0.03 0.03 0.02 0.02 0.03 0.03 0.03 0.02 0.02 0.01 0.01 0.01 0.01 0.01 0.01 0.01 0.01 0.01 0.01
0.00 0.00 0.00 0.00 0.00 0.00 0.00 0.01 0.00 0.00 0.00 0.00 0.00 0.00 0.00 0.00 0.01 0.02 0.02 0.02 0.01 0.01 0.01 0.01 0.01 0.01 0.01 0.01 0.01 0.01 0.00 0.00 0.00 0.00 0.00 0.00 0.00 0.01
0.00 0.00 0.00 0.00 0.00 0.00 0.01 0.01 0.00 0.00 0.00 0.00 0.00 0.00 0.00 0.00 0.00 0.00 0.01 0.01 0.01 0.01 0.01 0.00 0.01 0.01 0.01 0.02 0.02 0.01 0.01 0.01 0.01 0.01 0.00 0.00 0.00 0.00
0.00 0.00 0.00 0.00 0.00 0.00 0.00 0.00 0.00 0.00 0.00 0.00 0.00 0.00 0.00 0.00 0.00 0.00 0.00 0.00 0.00 0.00 0.00 0.00 0.00 0.01 0.01 0.01 0.02 0.02 0.01 0.01 0.01 0.01 0.01 0.00 0.00 0.00
0.00 0.00 0.00 0.01 0.00 0.00 0.00 0.00 0.00 0.00 0.00 0.00 0.00 0.00 0.00 0.00 0.00 0.00 0.00 0.00 0.00 0.00 0.00 0.00 0.01 0.01 0.01 0.01 0.02 0.03 0.02 0.01 0.01 0.01 0.01 0.00 0.00 0.01
0.01 0.01 0.00 0.00 0.00 0.00 0.00 0.00 0.00 0.00 0.00 0.00 0.00 0.00 0.00 0.00 0.00 0.00 0.00 0.00 0.00 0.00 0.00 0.00 0.00 0.00 0.01 0.01 0.01 0.01 0.01 0.02 0.01 0.01 0.01 0.01 0.01 0.01
0.01 0.01 0.00 0.00 0.00 0.00 0.00 0.00 0.00 0.00 0.00 0.00 0.00 0.00 0.00 0.00 0.00 0.00 0.00 0.00 0.00 0.00 0.00 0.00 0.00 0.00 0.00 0.01 0.01 0.01 0.01 0.01 0.01 0.01 0.01 0.01 0.01 0.01
0.01 0.00 0.00 0.00 0.00 0.00 0.00 0.00 0.00 0.00 0.00 0.00 0.00 0.00 0.00 0.00 0.00 0.00 0.00 0.00 0.00 0.00 0.00 0.00 0.01 0.01 0.01 0.01 0.01 0.01 0.01 0.01 0.01 0.01 0.01 0.01 0.00 0.00
MSLP
1012.87 1012.86 1012.94 1013.11 1013.36 1013.67 1014.04 1014.43 1014.83 1015.23 1015.61 1015.97 1016.29 1016.57 1016.80 1017.00 1017.17 1017.31 1017.44 1017.56 1017.69 1017.82 1017.96 1018.12 1018.27 1018.44 1018.61 1018.78 1018.96 1019.17 1019.40 1019.67 1019.96 1020.29 1020.63 1020.98 1021.32 1021.64
1012.68 1012.61 1012.62 1012.71 1012.88 1013.14 1013.46 1013.85 1014.27 1014.72 1015.17 1015.63 1016.06 1016.45 1016.80 1017.11 1017.37 1017.59 1017.78 1017.96 1018.12 1018.28 1018.45 1018.62 1018.80 1018.98 1019.17 1019.36 1019.56 1019.77 1020.00 1020.25 1020.52 1020.81 1021.12 1021.43 1021.72 1022.00
1012.71 1012.60 1012.53 1012.54 1012.63 1012.80 1013.07 1013.40 1013.81 1014.28 1014.78 1015.31 1015.83 1016.33 1016.80 1017.22 1017.58 1017.88 1018.14 1018.37 1018.57 1018.77 1018.96 1019.15 1019.34 1019.54 1019.74 1019.94 1020.14 1020.35 1020.57 1020.80 1021.05 1021.31 1021.57 1021.84 1022.09 1022.33
1012.94 1012.80 1012.68 1012.62 1012.62 1012.71 1012.89 1013.16 1013.53 1013.98 1014.50 1015.07 1015.66 1016.25 1016.80 1017.32 1017.77 1018.15 1018.48 1018.76 1019.00 1019.22 1019.42 1019.62 1019.82 1020.02 1020.22 1020.41 1020.61 1020.81 1021.01 1021.23 1021.45 1021.68 1021.91 1022.14 1022.36 1022.56
1013.32 1013.17 1013.03 1012.91 1012.85 1012.86 1012.95 1013.15 1013.45 1013.86 1014.37 1014.94 1015.56 1016.20 1016.82 1017.41 1017.92 1018.38 1018.76 1019.07 1019.34 1019.57 1019.77 1019.97 1020.16 1020.34 1020.53 1020.71 1020.89 1021.07 1021.26 1021.45 1021.65 1021.86 1022.07 1022.28 1022.48 1022.65
1013.77 1013.64 1013.50 1013.37 1013.26 1013.20 1013.22 1013.34 1013.58 1013.93 1014.39 1014.94 1015.56 1016.21 1016.86 1017.47 1018.03 1018.52 1018.93 1019.26 1019.54 1019.76 1019.96 1020.13 1020.30 1020.46 1020.62 1020.77 1020.93 1021.09 1021.26 1021.44 1021.62 1021.82 1022.02 1022.21 1022.40 1022.57
1014.22 1014.14 1014.03 1013.89 1013.77 1013.68 1013.65 1013.71 1013.87 1014.15 1014.55 1015.05 1015.63 1016.26 1016.89 1017.51 1018.07 1018.56 1018.97 1019.30 1019.56 1019.77 1019.94 1020.09 1020.22 1020.35 1020.47 1020.60 1020.74 1020.88 1021.03 1021.19 1021.36 1021.55 1021.75 1021.95 1022.14 1022.31
1014.61 1014.59 1014.52 1014.42 1014.31 1014.22 1014.16 1014.17 1014.27 1014.49 1014.81 1015.25 1015.76 1016.33 1016.93 1017.50 1018.03 1018.49 1018.88 1019.18 1019.42 1019.59 1019.73 1019.84 1019.94 1020.04 1020.13 1020.23 1020.34 1020.47 1020.60 1020.75 1020.92 1021.11 1021.31 1021.51 1021.71 1021.89
1014.89 1014.93 1014.93 1014.89 1014.82 1014.75 1014.68 1014.67 1014.73 1014.89 1015.14 1015.49 1015.93 1016.43 1016.94 1017.45 1017.92 1018.33 1018.67 1018.94 1019.13 1019.27 1019.37 1019.45 1019.52 1019.59 1019.66 1019.74 1019.84 1019.94 1020.07 1020.22 1020.38 1020.56 1020.76 1020.97 1021.17 1021.36
1015.06 1015.17 1015.24 1015.27 1015.26 1015.22 1015.18 1015.16 1015.19 1015.30 1015.49 1015.77 1016.12 1016.53 1016.96 1017.38 1017.78 1018.12 1018.40 1018.61 1018.77 1018.87 1018.94 1018.99 1019.04 1019.09 1019.15 1019.22 1019.31 1019.42 1019.54 1019.68 1019.84 1020.01 1020.20 1020.40 1020.59 1020.78
1015.13 1015.31 1015.46 1015.55 1015.60 1015.62 1015.61 1015.60 1015.62 1015.69 1015.83 1016.04 1016.31 1016.63 1016.98 1017.32 1017.64 1017.91 1018.13 1018.29 1018.41 1018.48 1018.53 1018.57 1018.61 1018.65 1018.71 1018.79 1018.87 1018.98 1019.09 1019.22 1019.37 1019.52 1019.69 1019.86 1020.03 1020.19
1015.16 1015.39 1015.59 1015.75 1015.87 1015.93 1015.95 1015.97 1015.99 1016.04 1016.14 1016.29 1016.50 1016.75 1017.02 1017.29 1017.54 1017.75 1017.92 1018.05 1018.13 1018.18 1018.22 1018.26 1018.30 1018.35 1018.41 1018.49 1018.58 1018.68 1018.79 1018.90 1019.02 1019.14 1019.27 1019.39 1019.51 1019.63
1015.16 1015.43 1015.68 1015.89 1016.05 1016.16 1016.22 1016.25 1016.28 1016.32 1016.40 1016.52 1016.68 1016.88 1017.09 1017.31 1017.51 1017.68 1017.82 1017.92 1017.99 1018.03 1018.07 1018.11 1018.16 1018.22 1018.29 1018.37 1018.46 1018.55 1018.63 1018.71 1018.79 1018.86 1018.93 1018.99 1019.05 1019.10
1015.17 1015.46 1015.74 1015.98 1016.17 1016.30 1016.39 1016.44 1016.48 1016.53 1016.60 1016.70 1016.85 1017.02 1017.20 1017.39 1017.57 1017.72 1017.84 1017.93 1018.00 1018.05 1018.09 1018.13 1018.19 1018.25 1018.32 1018.40 1018.47 1018.53 1018.58 1018.62 1018.64 1018.65 1018.65 1018.64 1018.63 1018.61
1015.16 1015.46 1015.75 1016.01 1016.21 1016.36 1016.47 1016.54 1016.59 1016.65 1016.73 1016.84 1016.98 1017.16 1017.34 1017.53 1017.70 1017.85 1017.98 1018.07 1018.14 1018.19 1018.24 1018.29 1018.34 1018.39 1018.45 1018.51 1018.55 1018.57 1018.58 1018.56 1018.51 1018.46 1018.39 1018.31 1018.23 1018.14
1015.12 1015.42 1015.71 1015.97 1016.18 1016.33 1016.45 1016.54 1016.61 1016.69 1016.80 1016.93 1017.09 1017.28 1017.49 1017.69 1017.88 1018.05 1018.18 1018.28 1018.36 1018.42 1018.46 1018.50 1018.54 1018.58 1018.61 1018.63 1018.63 1018.60 1018.55 1018.47 1018.36 1018.24 1018.11 1017.97 1017.83 1017.69
1015.02 1015.32 1015.60 1015.85 1016.06 1016.22 1016.35 1016.46 1016.56 1016.67 1016.80 1016.97 1017.17 1017.39 1017.62 1017.85 1018.07 1018.25 1018.40 1018.51 1018.59 1018.64 1018.68 1018.70 1018.71 1018.71 1018.71 1018.68 1018.63 1018.56 1018.45 1018.32 1018.16 1017.98 1017.80 1017.62 1017.44 1017.27
1014.85 1015.14 1015.42 1015.67 1015.88 1016.05 1016.19 1016.32 1016.45 1016.59 1016.77 1016.97 1017.21 1017.46 1017.73 1017.99 1018.22 1018.42 1018.57 1018.69 1018.76 1018.80 1018.81 1018.80 1018.78 1018.75 1018.70 1018.63 1018.54 1018.42 1018.27 1018.09 1017.90 1017.69 1017.48 1017.28 1017.09 1016.92
1014.61 1014.90 1015.18 1015.44 1015.65 1015.84 1016.01 1016.16 1016.33 1016.51 1016.72 1016.96 1017.23 1017.52 1017.80 1018.07 1018.32 1018.51 1018.67 1018.77 1018.82 1018.83 1018.82 1018.78 1018.72 1018.65 1018.56 1018.46 1018.34 1018.19 1018.02 1017.83 1017.62 1017.41 1017.20 1017.00 1016.82 1016.65
1014.34 1014.64 1014.94 1015.20 1015.44 1015.65 1015.85 1016.04 1016.24 1016.45 1016.69 1016.96 1017.25 1017.55 1017.84 1018.11 1018.34 1018.52 1018.65 1018.73 1018.75 1018.74 1018.69 1018.62 1018.54 1018.44 1018.33 1018.21 1018.07 1017.92 1017.75 1017.57 1017.38 1017.19 1017.00 1016.82 1016.65 1016.50
1014.08 1014.41 1014.72 1015.02 1015.28 1015.52 1015.75 1015.98 1016.20 1016.45 1016.71 1016.98 1017.27 1017.56 1017.84 1018.08 1018.29 1018.44 1018.54 1018.58 1018.57 1018.53 1018.46 1018.37 1018.26 1018.16 1018.04 1017.93 1017.80 1017.67 1017.53 1017.37 1017.22 1017.06 1016.90 1016.74 1016.60 1016.46
1013.90 1014.25 1014.59 1014.91 1015.21 1015.48 1015.74 1015.99 1016.24 1016.49 1016.76 1017.03 1017.30 1017.56 1017.80 1018.01 1018.17 1018.28 1018.34 1018.35 1018.31 1018.25 1018.16 1018.06 1017.96 1017.86 1017.76 1017.67 1017.58 1017.48 1017.38 1017.27 1017.15 1017.03 1016.91 1016.78 1016.65 1016.52
1013.84 1014.21 1014.57 1014.92 1015.24 1015.53 1015.81 1016.07 1016.33 1016.58 1016.83 1017.08 1017.32 1017.54 1017.73 1017.89 1018.00 1018.07 1018.09 1018.08 1018.02 1017.94 1017.86 1017.77 1017.68 1017.61 1017.54 1017.49 1017.44 1017.39 1017.33 1017.27 1017.19 1017.11 1017.00 1016.89 1016.76 1016.62
Thickness
5739 5737 5734 5732 5730 5728 5724 5719 5711 5700 5694 5694 5693 5693 5692 5690 5689 5689 5688 5686 5685 5682 5681 5679 5678 5676 5674 5672 5671 5670 5669 5667 5666 5665 5663 5662 5660 5659
5736 5734 5731 5729 5727 5724 5721 5717 5713 5705 5695 5691 5689 5687 5686 5684 5682 5681 5680 5678 5676 5674 5672 5671 5669 5667 5665 5663 5661 5660 5659 5657 5656 5654 5653 5651 5650 5648
5732 5730 5727 5725 5723 5720 5717 5713 5709 5704 5694 5688 5685 5682 5680 5677 5675 5673 5671 5669 5667 5665 5664 5662 5660 5658 5656 5654 5652 5650 5649 5647 5645 5644 5642 5640 5639 5637
5727 5725 5723 5721 5718 5715 5712 5708 5704 5701 5695 5686 5680 5677 5673 5671 5668 5665 5662 5660 5658 5656 5654 5652 5650 5649 5647 5645 5642 5641 5639 5637 5635 5633 5631 5629 5627 5625
5724 5721 5718 5716 5712 5710 5707 5703 5700 5697 5692 5684 5677 5672 5668 5665 5661 5658 5655 5652 5650 5648 5645 5644 5642 5640 5638 5635 5633 5631 5629 5627 5625 5622 5620 5617 5615 5613
5721 5718 5715 5712 5708 5706 5702 5698 5694 5689 5685 5679 5672 5666 5662 5658 5655 5650 5646 5644 5642 5640 5637 5635 5633 5630 5628 5626 5623 5621 5619 5617 5614 5612 5609 5606 5604 5602
5716 5714 5711 5708 5705 5702 5699 5693 5690 5684 5678 5672 5666 5661 5656 5652 5648 5645 5641 5637 5635 5633 5629 5627 5624 5621 5619 5616 5614 5611 5609 5607 5604 5601 5599 5596 5593 5591
5710 5708 5706 5703 5700 5697 5694 5690 5687 5680 5673 5667 5661 5656 5651 5648 5644 5641 5635 5631 5628 5626 5623 5619 5617 5613 5611 5608 5606 5603 5600 5597 5594 5591 5588 5586 5583 5581
5705 5703 5701 5698 5694 5691 5687 5684 5679 5676 5671 5665 5658 5653 5649 5645 5641 5636 5631 5627 5624 5621 5617 5611 5609 5606 5604 5601 5598 5595 5592 5588 5585 5582 5579 5576 5573 5571
5701 5698 5694 5690 5688 5684 5680 5675 5671 5667 5664 5660 5656 5651 5647 5642 5638 5633 5628 5622 5618 5615 5612 5605 5602 5599 5597 5593 5590 5587 5583 5580 5577 5574 5570 5567 5564 5561
5695 5692 5689 5685 5682 5679 5674 5668 5663 5660 5658 5655 5651 5647 5642 5638 5634 5628 5621 5615 5609 5607 5605 5600 5595 5591 5588 5585 5583 5579 5575 5572 5568 5565 5561 5558 5555 5552
5689 5686 5683 5679 5675 5672 5668 5663 5657 5653 5650 5647 5643 5640 5636 5632 5628 5623 5617 5610 5604 5600 5598 5593 5588 5583 5579 5577 5575 5571 5568 5564 5560 5556 5553 5549 5546 5543
5683 5679 5676 5673 5669 5666 5662 5657 5653 5648 5643 5639 5635 5631 5627 5624 5620 5616 5611 5606 5599 5595 5593 5588 5582 5577 5572 5568 5566 5563 5560 5556 5552 5548 5545 5542 5539 5535
5679 5674 5670 5667 5663 5660 5656 5652 5647 5642 5636 5631 5626 5622 5618 5614 5611 5608 5604 5599 5595 5591 5587 5583 5577 5571 5565 5560 5557 5554 5551 5548 5545 5542 5538 5535 5532 5529
5675 5670 5666 5661 5657 5653 5650 5645 5640 5634 5629 5623 5618 5614 5611 5608 5604 5600 5596 5592 5589 5585 5581 5576 5572 5566 5560 5554 5550 5546 5543 5541 5538 5535 5532 5529 5526 5523
5668 5664 5659 5655 5650 5646 5642 5637 5633 5628 5622 5617 5612 5608 5604 5600 5596 5593 5588 5584 5579 5576 5573 5569 5565 5560 5554 5549 5544 5540 5537 5533 5532 5529 5526 5523 5520 5517
5661 5656 5651 5646 5641 5636 5632 5629 5625 5620 5615 5610 5606 5601 5597 5593 5589 5585 5580 5575 5570 5566 5562 5560 5557 5553 5549 5543 5537 5534 5530 5528 5525 5523 5519 5516 5514 5512
5656 5649 5644 5639 5634 5630 5625 5621 5617 5613 5609 5604 5599 5595 5591 5586 5582 5577 5572 5567 5563 5559 5555 5551 5548 5544 5539 5536 5532 5528 5525 5521 5519 5516 5512 5507 5506 5505
5649 5643 5638 5633 5629 5624 5620 5615 5611 5607 5603 5598 5594 5589 5585 5580 5575 5570 5565 5560 5556 5552 5549 5544 5539 5534 5529 5526 5526 5524 5519 5516 5512 5508 5505 5501 5499 5499
5642 5638 5633 5628 5624 5619 5614 5610 5605 5600 5596 5592 5587 5583 5579 5574 5569 5564 5559 5554 5549 5545 5541 5537 5533 5529 5524 5521 5518 5517 5515 5510 5506 5502 5499 5496 5494 5493
5637 5632 5628 5624 5619 5614 5609 5604 5599 5595 5590 5586 5581 5577 5572 5568 5563 5558 5554 5549 5544 5539 5535 5531 5529 5527 5522 5516 5511 5509 5509 5507 5503 5498 5494 5489 5486 5484
5631 5627 5622 5618 5613 5609 5604 5599 5594 5589 5584 5579 5575 5571 5566 5562 5557 5553 5548 5543 5538 5534 5530 5527 5524 5520 5514 5509 5505 5503 5501 5501 5498 5494 5491 5487 5481 5477
5626 5622 5618 5613 5608 5603 5598 5593 5588 5584 5579 5574 5570 5565 5561 5556 5552 5548 5543 5538 5534 5529 5525 5521 5517 5513 5508 5504 5500 5496 5495 5492 5489 5486 5485 5483 5479 5477